Torna al catalogo

ORBASTRO-TR5

AttivoScienzaSSO
NORAD 63236·PAYLOAD·🇬🇧 United Kingdom

Lanciato Mar 15, 2025 da Vandenberg Space Force Base

Loading…

Prossimi Passaggi (prossime 24 ore)

TLE

AggiornatoSource: Space-Track

Epoca: Sep 13, 2026, 23:08 UTC

1 63236U 25052AC  26256.96426635  .00003816  00000-0  16664-3 0  9990
2 63236  97.3694 146.9939 0003448 175.7278 184.3988 15.22715367 83323

Traccia ORBASTRO-TR5 in tempo reale con AllMySat

Download on the App Store